Home   Weather   Dryden   Past weeks

Flag for Canada Past Weather in Dryden, Ontario, Canada — Yesterday and Last 2 Weeks

Now
30 °F

Light snow. Mostly cloudy.


Feels Like: 23 °F
Forecast: 28 / 32 °F
Wind: 7 mph from Southwest

Location: Dryden Airport

Current Time: Dec 5, 2016 at 6:47:30 am

Latest Report: Dec 5, 2016 at 6:00 am


Visibility: 4 mi

Pressure: 29.70 "Hg

Humidity: 93%

Dew Point: 28 °F

Location of DrydenLocation

Past Weather in Dryden — Graph

°F

Dryden Temperature Yesterday

Maximum temperature yesterday: 30 °F (at 12:48 pm)
Minimum temperature yesterday: 25 °F (at 12:00 am)
Average temperature yesterday: 28 °F

High & Low Weather Summary for the Past Weeks

 TemperatureHumidityPressure
High39 °F (Nov 28, 5:00 pm)100% (Nov 21, 8:00 am)30.47 "Hg (Nov 21, 8:00 am)
Low16 °F (Nov 21, 3:00 am)59% (Nov 20, 3:00 pm)29.19 "Hg (Nov 29, 2:00 am)
Average28 °F94%29.99 "Hg
* Reported Nov 20 5:00 am — Dec 5 5:00 am, Dryden, Weather by CustomWeather, © 2016

Note: Actual official high and low records may vary slightly from our data, if they occured in-between our weather recording intervals... More about our weather records

Advertising

Dryden Weather History for the Previous 24 Hours

Scroll right to see more
 ConditionsComfort  
Time TempWeatherWind HumidityBarometerVisibility
5:00 am
Mon, Dec 5
30 °FLight snow. Low clouds.6 mph100%29.67 "Hg7 mi
4:01 am30 °FLight snow. Low clouds.6 mph100%29.67 "Hg5 mi
3:00 am30 °FLight snow. Low clouds.6 mph100%29.66 "Hg9 mi
2:00 am30 °FLight snow. Low clouds.7 mph93%29.66 "Hg9 mi
1:00 am30 °FLight snow. Mostly cloudy.7 mph93%29.65 "Hg5 mi
12:00 am30 °FMostly cloudy.7 mph93%29.65 "Hg9 mi
11:00 pm
Sun, Dec 4
30 °FLight snow. Overcast.8 mph93%29.65 "Hg9 mi
10:00 pm30 °FLight snow. Mostly cloudy.6 mph93%29.65 "Hg9 mi
9:54 pm30 °FLight snow. Mostly cloudy.7 mph93%29.65 "Hg9 mi
9:00 pm30 °FLight snow. Mostly cloudy.7 mph93%29.66 "Hg8 mi
8:00 pm30 °FLight snow. Mostly cloudy.7 mph100%29.67 "Hg8 mi
7:46 pm30 °FLight snow. Mostly cloudy.10 mph100%29.68 "Hg6 mi
7:00 pm30 °FLight snow. Overcast.12 mph93%29.69 "Hg9 mi
6:45 pm30 °FLight snow. Overcast.13 mph93%29.69 "Hg9 mi
6:00 pm30 °FLight snow. Mostly cloudy.12 mph93%29.70 "Hg7 mi
5:00 pm30 °FLight snow. Overcast.9 mph100%29.73 "Hg5 mi
4:00 pm30 °FLight snow. Mostly cloudy.10 mph93%29.74 "Hg9 mi
3:00 pm30 °FLight snow. Mostly cloudy.12 mph93%29.75 "Hg9 mi
2:04 pm30 °FLight snow. Overcast.14 mph93%29.78 "Hg9 mi
1:04 pm30 °FLight snow. Mostly cloudy.10 mph93%29.80 "Hg2 mi
12:48 pm30 °FLight snow. Mostly cloudy.12 mph86%29.81 "Hg5 mi
12:00 pm28 °FLight snow. Overcast.13 mph93%29.84 "Hg9 mi
11:00 am28 °FLight snow. Mostly cloudy.14 mph93%29.88 "Hg9 mi
10:00 am27 °FOvercast.10 mph93%29.90 "Hg9 mi
9:00 am27 °FOvercast.8 mph93%29.92 "Hg9 mi
8:00 am27 °FOvercast.8 mph93%29.94 "Hg9 mi
7:03 am25 °FLight snow. Mostly cloudy.8 mph100%29.96 "Hg6 mi
6:53 am25 °FLight snow. Mostly cloudy.10 mph100%29.96 "Hg5 mi
6:00 am25 °FLight snow. Mostly cloudy.12 mph93%29.98 "Hg3 mi
Weather by CustomWeather, © 2016

See weather overviewHow to use our weather pages